Location: Buckeye Ditch
(40.9104°N, 122.9517°W)
Time: 19:38:24
(UTC+00:00)

BlueWalker 3 - Pass Details

Date: 23 June 2024
Orbit: 480 x 491 km, 53.2° (Epoch: 24 July)

Event Time Altitude Azimuth Distance (km) Brightness Sun altitude
Rises 07:11:23 0° 305° (NW) 2,540 6.3 -24.0°
Reaches altitude 10° 07:14:41 10° 336° (NNW) 1,659 5.6 -24.2°
Maximum altitude 07:16:19 12° 2° (N) 1,512 5.3 -24.3°
Drops below altitude 10° 07:17:58 10° 28° (NNE) 1,658 5.2 -24.4°
Sets 07:21:16 0° 60° (ENE) 2,537 5.7 -24.5°
